Weather History for Asheville, NC

Change the Weather History Date:

Friday, March 9, 2007

  Actual Average Record
Temperature  
Mean Temperature 46 °F 45 °F  
Max Temperature 57 °F 57 °F 80 °F (1974)
Min Temperature 34 °F 34 °F 8 °F (1996)
Degree Days  
Heating Degree Days 19 20  
Month to date heating degree days 179 186  
Since 1 July heating degree days 3375 3403  
Cooling Degree Days 0 0  
Month to date cooling degree days 0 0  
Year to date cooling degree days 0 0  
Moisture  
Dew Point 32 °F    
Average Humidity 62    
Maximum Humidity 89    
Minimum Humidity 35    
Precipitation  
Precipitation 0.00 in 0.13 in 1.54 in (2011)
Month to date precipitation 2.40 1.12  
Year to date precipitation 7.20 8.55  
Snow  
Snow 0.00 in 0.10 in 11.00 in (1960)
Month to date snowfall T 0.6  
Since 1 July snowfall 1.9 7.9  
Snow Depth -    
Sea Level Pressure  
Sea Level Pressure 30.29 in    
Wind  
Wind Speed 6 mph (SSE)    
Max Wind Speed 15 mph    
Max Gust Speed 21 mph    
Visibility 9 miles    
Events      
T = Trace of Precipitation, MM = Missing Value Source: NWS Daily Summary

Daily Weather History Graph

Daily Weather History Graph

Search for Another Location

Airport:

Trip Planner

Search our weather history database for the weather conditions in past years. The results will help you decide how hot, cold, wet, or windy it might be!

Date:

Astronomy

Mar. 09, 2007 Rise Set
Actual Time 6:49 AM EST 6:32 PM EST
Civil Twilight 6:24 AM EST 6:57 PM EST
Nautical Twilight 5:54 AM EST 7:27 PM EST
Astronomical Twilight 5:25 AM EST 7:56 PM EST
Moon No Moon Rise 9:17 AM EST (3/9)
Length of Visible Light 12h 33m
Length of Day
11h 42m
Waning Gibbous, 73% of the Moon is Illuminated
Mar 9
Waning Gibbous
Mar 11
Last Quarter
Mar 18
New
Mar 25
First Quarter
Apr 2
Full

Hourly Weather History & Observations

Time (EST) Temp. Windchill Dew Point Humidity Pressure Visibility Wind Dir Wind Speed Gust Speed Precip Events Conditions
12:54 AM 42.1 °F 39.2 °F 33.1 °F 70% 30.22 in 10.0 mi South 4.6 mph - N/A   Clear
1:54 AM 39.0 °F 36.8 °F 32.0 °F 76% 30.24 in 10.0 mi South 3.5 mph - N/A   Clear
2:54 AM 39.0 °F 36.8 °F 32.0 °F 76% 30.24 in 10.0 mi SE 3.5 mph - N/A   Clear
3:54 AM 36.0 °F 32.1 °F 30.9 °F 82% 30.25 in 9.0 mi SSE 4.6 mph - N/A   Clear
4:54 AM 37.0 °F - 32.0 °F 82% 30.27 in 9.0 mi Calm Calm - N/A   Clear
5:54 AM 34.0 °F - 30.9 °F 89% 30.28 in 8.0 mi Calm Calm - N/A   Clear
6:54 AM 36.0 °F 31.1 °F 32.0 °F 86% 30.30 in 8.0 mi SSE 5.8 mph - N/A   Scattered Clouds
7:05 AM 35.6 °F 30.7 °F 32.0 °F 87% 30.31 in 7.0 mi South 5.8 mph - N/A   Mostly Cloudy
7:54 AM 39.9 °F 33.9 °F 33.1 °F 77% 30.33 in 6.0 mi South 9.2 mph - N/A   Haze
8:29 AM 41.0 °F 35.2 °F 32.0 °F 70% 30.35 in 7.0 mi SSE 9.2 mph - N/A   Scattered Clouds
8:54 AM 41.0 °F 35.2 °F 32.0 °F 70% 30.35 in 7.0 mi SSE 9.2 mph - N/A   Clear
9:27 AM 41.0 °F 36.4 °F 33.8 °F 76% 30.36 in 7.0 mi SE 6.9 mph - N/A   Mostly Cloudy
9:54 AM 42.1 °F 36.6 °F 33.1 °F 70% 30.36 in 7.0 mi SSE 9.2 mph - N/A   Overcast
10:54 AM 45.0 °F 39.7 °F 32.0 °F 60% 30.35 in 6.0 mi SSE 10.4 mph - N/A   Haze
11:54 AM 46.0 °F 43.1 °F 30.9 °F 56% 30.34 in 10.0 mi Variable 5.8 mph - N/A   Haze
12:54 PM 52.0 °F - 32.0 °F 47% 30.30 in 10.0 mi South 11.5 mph 16.1 mph N/A   Haze
1:54 PM 52.0 °F - 30.9 °F 45% 30.27 in 10.0 mi SE 8.1 mph - N/A   Haze
2:54 PM 55.9 °F - 30.9 °F 39% 30.24 in 10.0 mi ESE 9.2 mph - N/A   Clear
3:54 PM 55.9 °F - 28.9 °F 36% 30.23 in 10.0 mi SE 10.4 mph - N/A   Clear
4:54 PM 55.0 °F - 28.9 °F 37% 30.22 in 10.0 mi SE 13.8 mph - N/A   Clear
5:54 PM 53.1 °F - 28.9 °F 40% 30.25 in 10.0 mi SE 8.1 mph - N/A   Clear
6:54 PM 48.9 °F - 30.0 °F 48% 30.28 in 10.0 mi SSE 5.8 mph - N/A   Clear
7:54 PM 45.0 °F 42.6 °F 32.0 °F 60% 30.29 in 10.0 mi SSE 4.6 mph - N/A   Clear
8:54 PM 44.1 °F - 32.0 °F 63% 30.30 in 10.0 mi Calm Calm - N/A   Clear
9:54 PM 43.0 °F 40.3 °F 32.0 °F 65% 30.30 in 10.0 mi SSE 4.6 mph - N/A   Clear
10:54 PM 39.9 °F - 32.0 °F 73% 30.30 in 10.0 mi Calm Calm - N/A   Clear
11:54 PM 41.0 °F - 33.1 °F 73% 30.29 in 10.0 mi Calm Calm - N/A   Overcast